Wetterdaten: Samstag, 19.11.2016
Datum Zeit Temp. A. Feuchte A. Luftdruck Regen Wind Richtung Richtung Sonnenschein Helligkeit Solar
19.11.2016 00:00 5,5 C 80 % 1003,8 hPa 0,0 l/m 14,7 km/h (3 Bft) S-SO22.5 165 0 min 0 lux 0 W/m
19.11.2016 00:05 5,6 C 80 % 1003,8 hPa 0,0 l/m 14,7 km/h (3 Bft) S22.5 170 0 min 0 lux 0 W/m
19.11.2016 00:10 5,6 C 79 % 1003,8 hPa 0,0 l/m 15,1 km/h (3 Bft) S-SO22.5 165 0 min 0 lux 0 W/m
19.11.2016 00:15 5,6 C 79 % 1003,8 hPa 0,0 l/m 16,1 km/h (3 Bft) S-SO22.5 160 0 min 0 lux 0 W/m
19.11.2016 00:20 5,6 C 79 % 1003,8 hPa 0,0 l/m 15,6 km/h (3 Bft) S22.5 170 0 min 0 lux 0 W/m
19.11.2016 00:25 5,6 C 79 % 1003,8 hPa 0,0 l/m 12,9 km/h (3 Bft) S45 170 0 min 0 lux 0 W/m
19.11.2016 00:30 5,6 C 79 % 1003,8 hPa 0,0 l/m 12,8 km/h (3 Bft) S22.5 180 0 min 0 lux 0 W/m
19.11.2016 00:35 5,5 C 79 % 1003,8 hPa 0,0 l/m 13,8 km/h (3 Bft) S22.5 170 0 min 0 lux 0 W/m
19.11.2016 00:40 5,5 C 79 % 1003,8 hPa 0,0 l/m 15,3 km/h (3 Bft) S22.5 175 0 min 0 lux 0 W/m
19.11.2016 00:45 5,5 C 79 % 1003,8 hPa 0,0 l/m 14,8 km/h (3 Bft) S22.5 170 0 min 0 lux 0 W/m
19.11.2016 00:50 5,4 C 79 % 1003,8 hPa 0,0 l/m 14,8 km/h (3 Bft) S22.5 170 0 min 0 lux 0 W/m
19.11.2016 00:55 5,4 C 79 % 1002,8 hPa 0,0 l/m 16,3 km/h (3 Bft) S-SO22.5 160 0 min 0 lux 0 W/m
19.11.2016 01:00 5,4 C 79 % 1002,8 hPa 0,0 l/m 14,6 km/h (3 Bft) S45 170 0 min 0 lux 0 W/m
19.11.2016 01:05 5,4 C 79 % 1002,8 hPa 0,0 l/m 17,1 km/h (3 Bft) S-SO22.5 160 0 min 0 lux 0 W/m
19.11.2016 01:10 5,4 C 79 % 1002,8 hPa 0,0 l/m 14,9 km/h (3 Bft) S22.5 170 0 min 0 lux 0 W/m
19.11.2016 01:15 5,4 C 79 % 1002,8 hPa 0,0 l/m 15,0 km/h (3 Bft) S-SO22.5 165 0 min 0 lux 0 W/m
19.11.2016 01:20 5,4 C 79 % 1002,8 hPa 0,0 l/m 17,3 km/h (3 Bft) S-SO22.5 160 0 min 0 lux 0 W/m
19.11.2016 01:25 5,3 C 79 % 1002,8 hPa 0,0 l/m 16,5 km/h (3 Bft) S-SO 160 0 min 0 lux 0 W/m
19.11.2016 01:30 5,2 C 79 % 1002,8 hPa 0,0 l/m 16,7 km/h (3 Bft) S-SO22.5 160 0 min 0 lux 0 W/m
19.11.2016 01:35 5,2 C 79 % 1002,8 hPa 0,0 l/m 13,1 km/h (3 Bft) SO22.5 145 0 min 0 lux 0 W/m
19.11.2016 01:40 5,2 C 79 % 1002,8 hPa 0,0 l/m 14,3 km/h (3 Bft) S-SO22.5 155 0 min 0 lux 0 W/m
19.11.2016 01:45 5,2 C 80 % 1002,8 hPa 0,0 l/m 13,6 km/h (3 Bft) S-SO22.5 150 0 min 0 lux 0 W/m
19.11.2016 01:50 5,1 C 80 % 1002,8 hPa 0,0 l/m 16,0 km/h (3 Bft) S-SO22.5 155 0 min 0 lux 0 W/m
19.11.2016 01:55 5,1 C 80 % 1002,8 hPa 0,0 l/m 15,0 km/h (3 Bft) S22.5 170 0 min 0 lux 0 W/m
19.11.2016 02:00 5,2 C 80 % 1002,8 hPa 0,0 l/m 18,5 km/h (3 Bft) S-SO22.5 165 0 min 0 lux 0 W/m
19.11.2016 02:05 5,2 C 80 % 1002,8 hPa 0,0 l/m 19,7 km/h (3 Bft) S-SO22.5 165 0 min 0 lux 0 W/m
19.11.2016 02:10 5,3 C 79 % 1002,8 hPa 0,0 l/m 17,1 km/h (3 Bft) S22.5 175 0 min 0 lux 0 W/m
19.11.2016 02:15 5,3 C 79 % 1002,8 hPa 0,0 l/m 16,8 km/h (3 Bft) S22.5 170 0 min 0 lux 0 W/m
19.11.2016 02:20 5,4 C 79 % 1002,8 hPa 0,0 l/m 16,0 km/h (3 Bft) S22.5 170 0 min 0 lux 0 W/m
19.11.2016 02:25 5,5 C 79 % 1002,8 hPa 0,0 l/m 15,3 km/h (3 Bft) S22.5 170 0 min 0 lux 0 W/m
19.11.2016 02:30 5,6 C 79 % 1002,8 hPa 0,0 l/m 20,0 km/h (4 Bft) S22.5 170 0 min 0 lux 0 W/m
19.11.2016 02:35 5,6 C 79 % 1002,8 hPa 0,0 l/m 17,5 km/h (3 Bft) S-SO22.5 155 0 min 0 lux 0 W/m
19.11.2016 02:40 5,7 C 79 % 1002,8 hPa 0,0 l/m 17,9 km/h (3 Bft) S-SO22.5 160 0 min 0 lux 0 W/m
19.11.2016 02:45 5,7 C 79 % 1002,8 hPa 0,0 l/m 15,7 km/h (3 Bft) S-SO22.5 160 0 min 0 lux 0 W/m
19.11.2016 02:50 5,7 C 79 % 1002,8 hPa 0,0 l/m 20,6 km/h (4 Bft) S-SO22.5 150 0 min 0 lux 0 W/m
19.11.2016 02:55 5,8 C 79 % 1002,8 hPa 0,0 l/m 17,3 km/h (3 Bft) S-SO22.5 150 0 min 0 lux 0 W/m
19.11.2016 03:00 5,8 C 79 % 1002,8 hPa 0,0 l/m 18,0 km/h (3 Bft) S-SO22.5 165 0 min 0 lux 0 W/m
19.11.2016 03:05 5,8 C 79 % 1002,8 hPa 0,0 l/m 15,1 km/h (3 Bft) S-SO22.5 155 0 min 0 lux 0 W/m
19.11.2016 03:09 5,7 C 79 % 1002,8 hPa 0,0 l/m 16,3 km/h (3 Bft) S-SO22.5 150 0 min 0 lux 0 W/m
19.11.2016 03:15 5,6 C 79 % 1002,8 hPa 0,0 l/m 15,9 km/h (3 Bft) S-SO45 160 0 min 0 lux 0 W/m
19.11.2016 03:20 5,6 C 79 % 1002,8 hPa 0,0 l/m 18,1 km/h (3 Bft) S-SO22.5 160 0 min 0 lux 0 W/m
19.11.2016 03:25 5,5 C 79 % 1002,8 hPa 0,0 l/m 21,1 km/h (4 Bft) S-SO22.5 160 0 min 0 lux 0 W/m
19.11.2016 03:30 5,4 C 79 % 1002,8 hPa 0,0 l/m 16,8 km/h (3 Bft) S-SO22.5 160 0 min 0 lux 0 W/m
19.11.2016 03:35 5,4 C 79 % 1002,8 hPa 0,0 l/m 18,3 km/h (3 Bft) S-SO22.5 165 0 min 0 lux 0 W/m
19.11.2016 03:40 5,2 C 80 % 1002,8 hPa 0,0 l/m 16,3 km/h (3 Bft) S-SO22.5 155 0 min 0 lux 0 W/m
19.11.2016 03:45 5,2 C 80 % 1002,8 hPa 0,0 l/m 19,5 km/h (3 Bft) SO45 145 0 min 0 lux 0 W/m
19.11.2016 03:50 5,2 C 80 % 1002,8 hPa 0,0 l/m 19,1 km/h (3 Bft) S-SO22.5 150 0 min 0 lux 0 W/m
19.11.2016 03:55 5,2 C 80 % 1002,8 hPa 0,0 l/m 17,6 km/h (3 Bft) S-SO45 155 0 min 0 lux 0 W/m
19.11.2016 04:00 5,2 C 80 % 1002,8 hPa 0,0 l/m 20,0 km/h (4 Bft) S-SO22.5 160 0 min 0 lux 0 W/m
19.11.2016 04:05 5,2 C 80 % 1002,8 hPa 0,0 l/m 18,9 km/h (3 Bft) S22.5 170 0 min 0 lux 0 W/m
19.11.2016 04:10 5,2 C 80 % 1002,8 hPa 0,0 l/m 20,7 km/h (4 Bft) S-SO22.5 165 0 min 0 lux 0 W/m
19.11.2016 04:15 5,1 C 80 % 1002,8 hPa 0,0 l/m 17,1 km/h (3 Bft) S-SO22.5 155 0 min 0 lux 0 W/m
19.11.2016 04:20 5,1 C 80 % 1002,8 hPa 0,0 l/m 17,7 km/h (3 Bft) S-SO22.5 160 0 min 0 lux 0 W/m
19.11.2016 04:25 5,1 C 80 % 1002,8 hPa 0,0 l/m 18,3 km/h (3 Bft) S-SO45 155 0 min 0 lux 0 W/m
19.11.2016 04:30 4,9 C 80 % 1002,8 hPa 0,0 l/m 18,8 km/h (3 Bft) S-SO22.5 160 0 min 0 lux 0 W/m
19.11.2016 04:35 4,8 C 80 % 1002,8 hPa 0,0 l/m 18,0 km/h (3 Bft) S-SO22.5 160 0 min 0 lux 0 W/m
19.11.2016 04:40 4,8 C 80 % 1002,8 hPa 0,0 l/m 20,9 km/h (4 Bft) S-SO22.5 165 0 min 0 lux 0 W/m
19.11.2016 04:45 4,8 C 80 % 1002,8 hPa 0,0 l/m 20,0 km/h (4 Bft) S-SO22.5 160 0 min 0 lux 0 W/m
19.11.2016 04:49 4,8 C 80 % 1002,8 hPa 0,0 l/m 15,6 km/h (3 Bft) S-SO22.5 160 0 min 0 lux 0 W/m
19.11.2016 04:55 4,8 C 80 % 1002,8 hPa 0,0 l/m 14,5 km/h (3 Bft) S-SO45 155 0 min 0 lux 0 W/m
19.11.2016 05:00 4,8 C 80 % 1001,8 hPa 0,0 l/m 16,6 km/h (3 Bft) S-SO45 155 0 min 0 lux 0 W/m
19.11.2016 05:05 4,7 C 81 % 1001,8 hPa 0,0 l/m 18,6 km/h (3 Bft) S-SO67.5 160 0 min 0 lux 0 W/m
19.11.2016 05:10 4,7 C 81 % 1002,8 hPa 0,0 l/m 16,6 km/h (3 Bft) S-SO22.5 165 0 min 0 lux 0 W/m
19.11.2016 05:15 4,7 C 81 % 1002,8 hPa 0,0 l/m 20,1 km/h (4 Bft) S-SO22.5 160 0 min 0 lux 0 W/m
19.11.2016 05:20 4,7 C 81 % 1002,8 hPa 0,0 l/m 20,8 km/h (4 Bft) S-SO22.5 165 0 min 0 lux 0 W/m
19.11.2016 05:25 4,9 C 81 % 1002,8 hPa 0,0 l/m 19,4 km/h (3 Bft) S-SO22.5 165 0 min 0 lux 0 W/m
19.11.2016 05:30 4,9 C 81 % 1002,8 hPa 0,0 l/m 18,6 km/h (3 Bft) S22.5 170 0 min 0 lux 0 W/m
19.11.2016 05:34 4,9 C 81 % 1002,8 hPa 0,0 l/m 14,8 km/h (3 Bft) S-SO45 165 0 min 0 lux 0 W/m
19.11.2016 05:40 4,9 C 81 % 1002,8 hPa 0,0 l/m 17,1 km/h (3 Bft) S-SO22.5 165 0 min 0 lux 0 W/m
19.11.2016 05:45 4,9 C 81 % 1002,8 hPa 0,0 l/m 17,0 km/h (3 Bft) S-SO22.5 165 0 min 0 lux 0 W/m
19.11.2016 05:50 4,9 C 81 % 1002,8 hPa 0,0 l/m 21,0 km/h (4 Bft) S-SO45 165 0 min 0 lux 0 W/m
19.11.2016 05:55 5,1 C 81 % 1002,8 hPa 0,0 l/m 20,2 km/h (4 Bft) S-SO22.5 165 0 min 0 lux 0 W/m
19.11.2016 06:00 5,1 C 81 % 1002,8 hPa 0,0 l/m 22,6 km/h (4 Bft) S-SO22.5 165 0 min 0 lux 0 W/m
19.11.2016 06:05 5,2 C 81 % 1002,8 hPa 0,0 l/m 19,1 km/h (3 Bft) S45 170 0 min 0 lux 0 W/m
19.11.2016 06:10 5,2 C 81 % 1002,8 hPa 0,0 l/m 21,8 km/h (4 Bft) S-SO22.5 160 0 min 0 lux 0 W/m
19.11.2016 06:15 5,3 C 80 % 1002,8 hPa 0,0 l/m 19,6 km/h (3 Bft) S-SO22.5 160 0 min 0 lux 0 W/m
19.11.2016 06:19 5,4 C 81 % 1002,8 hPa 0,0 l/m 20,8 km/h (4 Bft) S-SO22.5 165 0 min 0 lux 0 W/m
19.11.2016 06:25 5,4 C 81 % 1002,8 hPa 0,0 l/m 19,6 km/h (3 Bft) S-SO22.5 160 0 min 0 lux 0 W/m
19.11.2016 06:30 5,4 C 81 % 1002,8 hPa 0,0 l/m 16,3 km/h (3 Bft) S-SO45 165 0 min 0 lux 0 W/m
19.11.2016 06:35 5,4 C 81 % 1002,8 hPa 0,0 l/m 14,2 km/h (3 Bft) S-SO22.5 165 0 min 0 lux 0 W/m
19.11.2016 06:40 5,4 C 81 % 1002,8 hPa 0,0 l/m 16,4 km/h (3 Bft) S22.5 175 0 min 0 lux 0 W/m
19.11.2016 06:45 5,3 C 80 % 1002,8 hPa 0,0 l/m 15,6 km/h (3 Bft) S45 175 0 min 0 lux 0 W/m
19.11.2016 06:50 5,3 C 80 % 1002,8 hPa 0,0 l/m 20,1 km/h (4 Bft) S22.5 170 0 min 0 lux 0 W/m
19.11.2016 06:55 5,2 C 80 % 1002,8 hPa 0,0 l/m 18,6 km/h (3 Bft) S22.5 170 0 min 0 lux 0 W/m
19.11.2016 07:00 5,2 C 80 % 1002,8 hPa 0,0 l/m 18,3 km/h (3 Bft) S-SO22.5 165 0 min 0 lux 0 W/m
19.11.2016 07:04 5,2 C 80 % 1002,8 hPa 0,0 l/m 17,7 km/h (3 Bft) S22.5 170 0 min 0 lux 0 W/m
19.11.2016 07:10 5,3 C 80 % 1002,8 hPa 0,0 l/m 18,0 km/h (3 Bft) S-SO22.5 165 0 min 0 lux 0 W/m
19.11.2016 07:15 5,3 C 80 % 1002,8 hPa 0,0 l/m 19,0 km/h (3 Bft) S45 170 0 min 0 lux 0 W/m
19.11.2016 07:20 5,3 C 80 % 1002,8 hPa 0,0 l/m 17,0 km/h (3 Bft) S22.5 170 0 min 0 lux 0 W/m
19.11.2016 07:25 5,2 C 80 % 1002,8 hPa 0,0 l/m 15,8 km/h (3 Bft) S-SO22.5 160 0 min 0 lux 0 W/m
19.11.2016 07:30 5,2 C 80 % 1002,8 hPa 0,0 l/m 17,8 km/h (3 Bft) S-SO22.5 165 0 min 0 lux 0 W/m
19.11.2016 07:35 5,2 C 80 % 1002,8 hPa 0,0 l/m 16,7 km/h (3 Bft) S22.5 170 0 min 0 lux 0 W/m
19.11.2016 07:40 5,2 C 81 % 1002,8 hPa 0,0 l/m 16,5 km/h (3 Bft) S22.5 170 0 min 0 lux 0 W/m
19.11.2016 07:45 5,1 C 81 % 1002,8 hPa 0,0 l/m 16,4 km/h (3 Bft) S-SO22.5 160 0 min 0 lux 0 W/m
19.11.2016 07:50 5,1 C 81 % 1002,8 hPa 0,0 l/m 19,7 km/h (3 Bft) S22.5 170 0 min 0 lux 0 W/m
19.11.2016 07:55 5,2 C 81 % 1002,8 hPa 0,0 l/m 15,3 km/h (3 Bft) S22.5 170 0 min 0 lux 0 W/m
19.11.2016 08:00 5,4 C 81 % 1002,8 hPa 0,0 l/m 13,5 km/h (3 Bft) S-SO22.5 160 0 min 0 lux 0 W/m
19.11.2016 08:05 5,5 C 81 % 1002,8 hPa 0,0 l/m 18,2 km/h (3 Bft) S22.5 170 0 min 0 lux 0 W/m
19.11.2016 08:10 5,5 C 80 % 1002,8 hPa 0,0 l/m 21,0 km/h (4 Bft) S22.5 170 0 min 0 lux 0 W/m
19.11.2016 08:14 5,6 C 80 % 1002,8 hPa 0,0 l/m 18,9 km/h (3 Bft) S22.5 180 0 min 0 lux 0 W/m
19.11.2016 08:20 5,5 C 80 % 1002,8 hPa 0,0 l/m 20,2 km/h (4 Bft) S22.5 175 0 min 0 lux 0 W/m
19.11.2016 08:25 5,5 C 80 % 1002,8 hPa 0,0 l/m 18,0 km/h (3 Bft) S22.5 175 0 min 0 lux 0 W/m
19.11.2016 08:30 5,4 C 80 % 1003,8 hPa 0,0 l/m 19,0 km/h (3 Bft) S22.5 170 0 min 0 lux 0 W/m
19.11.2016 08:35 5,4 C 80 % 1002,8 hPa 0,0 l/m 16,6 km/h (3 Bft) S22.5 170 0 min 0 lux 0 W/m
19.11.2016 08:40 5,4 C 80 % 1003,8 hPa 0,0 l/m 16,1 km/h (3 Bft) S22.5 170 0 min 0 lux 0 W/m
19.11.2016 08:45 5,4 C 80 % 1003,8 hPa 0,0 l/m 17,6 km/h (3 Bft) S22.5 170 0 min 0 lux 0 W/m
19.11.2016 08:50 5,4 C 80 % 1003,8 hPa 0,0 l/m 19,1 km/h (3 Bft) S-SO22.5 165 0 min 0 lux 0 W/m
19.11.2016 08:55 5,4 C 81 % 1003,8 hPa 0,0 l/m 18,0 km/h (3 Bft) S22.5 170 0 min 0 lux 0 W/m
19.11.2016 09:00 5,3 C 80 % 1002,8 hPa 0,0 l/m 16,5 km/h (3 Bft) S22.5 170 0 min 0 lux 0 W/m
19.11.2016 09:05 5,3 C 80 % 1002,8 hPa 0,0 l/m 18,0 km/h (3 Bft) S22.5 170 0 min 0 lux 0 W/m
19.11.2016 09:10 5,3 C 80 % 1003,8 hPa 0,0 l/m 17,3 km/h (3 Bft) S22.5 170 0 min 0 lux 0 W/m
19.11.2016 09:15 5,3 C 80 % 1003,8 hPa 0,0 l/m 15,6 km/h (3 Bft) S22.5 170 0 min 0 lux 0 W/m
19.11.2016 09:20 5,4 C 81 % 1003,8 hPa 0,0 l/m 15,4 km/h (3 Bft) S22.5 175 0 min 0 lux 0 W/m
19.11.2016 09:25 5,4 C 81 % 1003,8 hPa 0,0 l/m 15,0 km/h (3 Bft) S22.5 175 0 min 0 lux 0 W/m
19.11.2016 09:30 5,4 C 81 % 1003,8 hPa 0,0 l/m 16,6 km/h (3 Bft) S22.5 175 0 min 0 lux 0 W/m
19.11.2016 09:35 5,4 C 81 % 1003,8 hPa 0,0 l/m 14,6 km/h (3 Bft) S22.5 175 0 min 0 lux 0 W/m
19.11.2016 09:40 5,4 C 81 % 1003,8 hPa 0,0 l/m 19,6 km/h (3 Bft) S22.5 175 0 min 0 lux 0 W/m
19.11.2016 09:45 5,5 C 80 % 1003,8 hPa 0,0 l/m 19,5 km/h (3 Bft) S22.5 180 0 min 0 lux 0 W/m
19.11.2016 09:50 5,6 C 80 % 1003,8 hPa 0,0 l/m 22,1 km/h (4 Bft) S22.5 185 0 min 7,32 klux 50 W/m
19.11.2016 09:55 5,9 C 79 % 1003,8 hPa 0,0 l/m 18,3 km/h (3 Bft) S22.5 180 0 min 7,32 klux 50 W/m
19.11.2016 10:00 6,0 C 79 % 1003,8 hPa 0,0 l/m 20,5 km/h (4 Bft) S22.5 175 0 min 7,32 klux 50 W/m
19.11.2016 10:05 6,1 C 78 % 1003,8 hPa 0,0 l/m 19,0 km/h (3 Bft) S45 180 0 min 7,32 klux 50 W/m
19.11.2016 10:10 6,1 C 78 % 1003,8 hPa 0,0 l/m 19,8 km/h (3 Bft) S22.5 190 0 min 7,32 klux 50 W/m
19.11.2016 10:15 6,2 C 77 % 1003,8 hPa 0,0 l/m 19,6 km/h (3 Bft) S45 190 0 min 7,32 klux 50 W/m
19.11.2016 10:20 6,3 C 77 % 1003,8 hPa 0,0 l/m 20,8 km/h (4 Bft) S-SW22.5 195 0 min 7,32 klux 50 W/m
19.11.2016 10:25 6,4 C 77 % 1003,8 hPa 0,0 l/m 23,6 km/h (4 Bft) S-SW22.5 200 0 min 7,32 klux 50 W/m
19.11.2016 10:30 6,5 C 76 % 1003,8 hPa 0,0 l/m 27,5 km/h (5 Bft) S-SW45 200 0 min 1,27 klux 9 W/m
19.11.2016 10:35 6,4 C 76 % 1004,8 hPa 0,0 l/m 23,1 km/h (4 Bft) SW67.5 215 0 min 3,28 klux 22 W/m
19.11.2016 10:40 6,4 C 76 % 1004,8 hPa 0,0 l/m 20,0 km/h (4 Bft) SW45 215 0 min 3,28 klux 22 W/m
19.11.2016 10:45 6,4 C 77 % 1004,8 hPa 0,0 l/m 23,9 km/h (4 Bft) SW45 215 0 min 3,28 klux 22 W/m
19.11.2016 10:50 6,4 C 77 % 1004,8 hPa 0,0 l/m 28,6 km/h (5 Bft) SW45 215 0 min 3,28 klux 22 W/m
19.11.2016 10:55 6,4 C 77 % 1004,8 hPa 0,0 l/m 22,8 km/h (4 Bft) SW45 215 0 min 3,28 klux 22 W/m
19.11.2016 11:00 6,5 C 76 % 1004,8 hPa 0,0 l/m 21,7 km/h (4 Bft) S-SW22.5 205 0 min 3,28 klux 22 W/m
19.11.2016 11:05 6,6 C 77 % 1004,8 hPa 0,0 l/m 20,0 km/h (4 Bft) S-SW22.5 205 0 min 3,28 klux 22 W/m
19.11.2016 11:10 6,6 C 76 % 1004,8 hPa 0,0 l/m 19,7 km/h (3 Bft) S-SW45 205 0 min 3,28 klux 22 W/m
19.11.2016 11:15 6,7 C 76 % 1004,8 hPa 0,0 l/m 20,3 km/h (4 Bft) S-SW22.5 195 0 min 6,41 klux 44 W/m
19.11.2016 11:20 6,8 C 76 % 1004,8 hPa 0,0 l/m 22,5 km/h (4 Bft) SW22.5 225 0 min 6,41 klux 44 W/m
19.11.2016 11:25 6,8 C 77 % 1004,8 hPa 0,0 l/m 25,9 km/h (4 Bft) SW45 225 0 min 9,0 klux 62 W/m
19.11.2016 11:30 6,9 C 76 % 1004,8 hPa 0,0 l/m 26,6 km/h (4 Bft) SW45 215 0 min 14,4 klux 98 W/m
19.11.2016 11:35 7,0 C 76 % 1004,8 hPa 0,0 l/m 31,0 km/h (5 Bft) SW45 215 0 min 5,43 klux 37 W/m
19.11.2016 11:40 6,9 C 76 % 1004,8 hPa 0,0 l/m 26,3 km/h (4 Bft) SW45 235 0 min 8,29 klux 57 W/m
19.11.2016 11:45 6,8 C 76 % 1004,8 hPa 0,0 l/m 26,3 km/h (4 Bft) SW45 235 0 min 6,75 klux 46 W/m
19.11.2016 11:50 6,9 C 76 % 1004,8 hPa 0,0 l/m 25,7 km/h (4 Bft) SW45 220 0 min 6,75 klux 46 W/m
19.11.2016 11:55 6,9 C 76 % 1004,8 hPa 0,0 l/m 19,8 km/h (3 Bft) SW45 220 0 min 11,3 klux 77 W/m
19.11.2016 12:00 6,9 C 76 % 1004,8 hPa 0,0 l/m 18,5 km/h (3 Bft) S-SW22.5 205 0 min 11,3 klux 77 W/m
19.11.2016 12:05 7,0 C 75 % 1004,8 hPa 0,0 l/m 18,0 km/h (3 Bft) SW22.5 215 0 min 5,46 klux 37 W/m
19.11.2016 12:10 7,1 C 76 % 1004,8 hPa 0,0 l/m 24,8 km/h (4 Bft) SW45 220 0 min 5,46 klux 37 W/m
19.11.2016 12:15 7,0 C 76 % 1004,8 hPa 0,0 l/m 24,8 km/h (4 Bft) SW45 220 0 min 4,87 klux 33 W/m
19.11.2016 12:20 7,0 C 75 % 1004,8 hPa 0,0 l/m 32,9 km/h (5 Bft) SW45 225 0 min 5,44 klux 37 W/m
19.11.2016 12:25 7,0 C 75 % 1004,8 hPa 0,0 l/m 31,5 km/h (5 Bft) SW67.5 225 0 min 6,06 klux 41 W/m
19.11.2016 12:29 7,1 C 76 % 1004,8 hPa 0,0 l/m 21,6 km/h (4 Bft) SW45 230 0 min 10,5 klux 72 W/m
19.11.2016 12:35 7,1 C 76 % 1004,8 hPa 0,0 l/m 26,3 km/h (4 Bft) SW45 215 0 min 10,5 klux 72 W/m
19.11.2016 12:40 7,2 C 76 % 1004,8 hPa 0,0 l/m 21,9 km/h (4 Bft) SW45 215 0 min 9,2 klux 63 W/m
19.11.2016 12:45 7,2 C 76 % 1004,8 hPa 0,0 l/m 25,5 km/h (4 Bft) SW45 215 0 min 8,47 klux 58 W/m
19.11.2016 12:50 7,2 C 75 % 1004,8 hPa 0,0 l/m 26,9 km/h (4 Bft) SW45 220 0 min 9,8 klux 67 W/m
19.11.2016 12:55 7,2 C 75 % 1004,8 hPa 0,0 l/m 25,7 km/h (4 Bft) SW45 215 0 min 6,84 klux 47 W/m
19.11.2016 13:00 7,2 C 75 % 1004,8 hPa 0,0 l/m 26,8 km/h (4 Bft) SW45 215 0 min 6,75 klux 46 W/m
19.11.2016 13:05 7,2 C 74 % 1004,8 hPa 0,0 l/m 27,2 km/h (5 Bft) SW45 215 0 min 6,71 klux 46 W/m
19.11.2016 13:10 7,2 C 74 % 1004,8 hPa 0,0 l/m 30,6 km/h (5 Bft) S-SW45 210 0 min 6,71 klux 46 W/m
19.11.2016 13:15 7,2 C 74 % 1004,8 hPa 0,0 l/m 34,3 km/h (5 Bft) SW67.5 220 0 min 10,7 klux 73 W/m
19.11.2016 13:20 7,2 C 74 % 1004,8 hPa 0,0 l/m 30,0 km/h (5 Bft) SW67.5 215 0 min 7,95 klux 54 W/m
19.11.2016 13:25 7,2 C 74 % 1004,8 hPa 0,0 l/m 29,4 km/h (5 Bft) SW45 235 0 min 6,43 klux 44 W/m
19.11.2016 13:30 7,2 C 75 % 1004,8 hPa 0,0 l/m 23,8 km/h (4 Bft) SW45 230 0 min 8,04 klux 55 W/m
19.11.2016 13:35 7,2 C 75 % 1004,8 hPa 0,0 l/m 21,2 km/h (4 Bft) SW45 225 0 min 8,81 klux 60 W/m
19.11.2016 13:40 7,2 C 75 % 1004,8 hPa 0,0 l/m 21,6 km/h (4 Bft) SW22.5 230 0 min 8,81 klux 60 W/m
19.11.2016 13:45 7,3 C 75 % 1004,8 hPa 0,0 l/m 21,1 km/h (4 Bft) SW22.5 230 5 min 33,5 klux 229 W/m
19.11.2016 13:50 7,6 C 74 % 1004,8 hPa 0,0 l/m 22,5 km/h (4 Bft) SW45 220 5 min 32,1 klux 220 W/m
19.11.2016 13:55 7,6 C 74 % 1004,8 hPa 0,0 l/m 17,0 km/h (3 Bft) SW45 225 0 min 6,88 klux 47 W/m
19.11.2016 14:00 7,6 C 75 % 1004,8 hPa 0,0 l/m 16,0 km/h (3 Bft) SW45 220 5 min 31,3 klux 214 W/m
19.11.2016 14:05 7,8 C 74 % 1004,8 hPa 0,0 l/m 20,1 km/h (4 Bft) SW45 220 5 min 30,4 klux 208 W/m
19.11.2016 14:10 7,8 C 75 % 1004,8 hPa 0,0 l/m 18,6 km/h (3 Bft) SW45 220 0 min 8,18 klux 56 W/m
19.11.2016 14:15 8,0 C 74 % 1004,8 hPa 0,0 l/m 23,3 km/h (4 Bft) SW45 225 0 min 8,18 klux 56 W/m
19.11.2016 14:20 8,2 C 72 % 1004,8 hPa 0,0 l/m 31,3 km/h (5 Bft) SW45 215 5 min 22,7 klux 155 W/m
19.11.2016 14:25 8,4 C 70 % 1004,8 hPa 0,0 l/m 30,1 km/h (5 Bft) SW45 225 5 min 22,8 klux 156 W/m
19.11.2016 14:30 8,6 C 69 % 1004,8 hPa 0,0 l/m 32,3 km/h (5 Bft) SW67.5 215 0 min 12,7 klux 87 W/m
19.11.2016 14:35 8,2 C 68 % 1004,8 hPa 0,0 l/m 36,2 km/h (5 Bft) SW67.5 215 0 min 9,9 klux 68 W/m
19.11.2016 14:40 8,0 C 69 % 1004,8 hPa 0,0 l/m 23,4 km/h (4 Bft) SW67.5 220 0 min 6,85 klux 47 W/m
19.11.2016 14:45 7,9 C 70 % 1004,8 hPa 0,0 l/m 31,5 km/h (5 Bft) SW45 220 0 min 6,85 klux 47 W/m
19.11.2016 14:50 7,9 C 71 % 1004,8 hPa 0,0 l/m 27,8 km/h (5 Bft) SW45 225 0 min 6,58 klux 45 W/m
19.11.2016 14:55 7,9 C 70 % 1004,8 hPa 0,0 l/m 28,4 km/h (5 Bft) S-SW45 210 0 min 4,41 klux 30 W/m
19.11.2016 15:00 7,7 C 71 % 1004,8 hPa 0,0 l/m 32,2 km/h (5 Bft) S-SW67.5 210 0 min 3,59 klux 25 W/m
19.11.2016 15:05 7,7 C 71 % 1005,8 hPa 0,0 l/m 27,6 km/h (5 Bft) S-SW67.5 205 0 min 4,65 klux 32 W/m
19.11.2016 15:10 7,7 C 71 % 1004,8 hPa 0,0 l/m 23,0 km/h (4 Bft) SW45 220 0 min 5,07 klux 35 W/m
19.11.2016 15:15 7,7 C 71 % 1004,8 hPa 0,0 l/m 31,1 km/h (5 Bft) SW45 215 0 min 5,07 klux 35 W/m
19.11.2016 15:20 7,7 C 72 % 1004,8 hPa 0,0 l/m 26,6 km/h (4 Bft) SW45 215 0 min 4,85 klux 33 W/m
19.11.2016 15:25 7,6 C 72 % 1004,8 hPa 0,0 l/m 25,0 km/h (4 Bft) SW45 225 0 min 4,10 klux 28 W/m
19.11.2016 15:30 7,6 C 72 % 1004,8 hPa 0,0 l/m 26,0 km/h (4 Bft) SW45 215 0 min 4,10 klux 28 W/m
19.11.2016 15:35 7,6 C 73 % 1004,8 hPa 0,0 l/m 27,3 km/h (5 Bft) SW45 225 0 min 2,35 klux 16 W/m
19.11.2016 15:40 7,5 C 72 % 1004,8 hPa 0,0 l/m 22,0 km/h (4 Bft) SW67.5 230 0 min 2,35 klux 16 W/m
19.11.2016 15:45 7,4 C 73 % 1004,8 hPa 0,0 l/m 22,1 km/h (4 Bft) SW45 225 0 min 1,34 klux 9 W/m
19.11.2016 15:50 7,4 C 73 % 1004,8 hPa 0,0 l/m 17,8 km/h (3 Bft) SW22.5 215 0 min 1,86 klux 13 W/m
19.11.2016 15:55 7,4 C 74 % 1004,8 hPa 0,0 l/m 17,4 km/h (3 Bft) SW22.5 215 0 min 1,34 klux 9 W/m
19.11.2016 16:00 7,4 C 73 % 1004,8 hPa 0,0 l/m 16,3 km/h (3 Bft) S-SW45 195 0 min 1,12 klux 8 W/m
19.11.2016 16:05 7,4 C 73 % 1005,8 hPa 0,0 l/m 14,4 km/h (3 Bft) S-SW22.5 210 0 min 877 lux 6 W/m
19.11.2016 16:10 7,4 C 74 % 1004,8 hPa 0,0 l/m 17,3 km/h (3 Bft) S-SW22.5 205 0 min 629 lux 4 W/m
19.11.2016 16:15 7,3 C 74 % 1005,8 hPa 0,0 l/m 19,7 km/h (3 Bft) SW45 215 0 min 482 lux 3 W/m
19.11.2016 16:20 7,3 C 74 % 1005,8 hPa 0,0 l/m 19,2 km/h (3 Bft) S-SW45 205 0 min 508 lux 3 W/m
19.11.2016 16:25 7,2 C 74 % 1005,8 hPa 0,0 l/m 19,6 km/h (3 Bft) S-SW22.5 210 0 min 389 lux 3 W/m
19.11.2016 16:30 7,3 C 73 % 1005,8 hPa 0,0 l/m 20,0 km/h (4 Bft) S-SW22.5 200 0 min 261 lux 2 W/m
19.11.2016 16:35 7,3 C 73 % 1005,8 hPa 0,0 l/m 16,7 km/h (3 Bft) S-SW45 205 0 min 261 lux 0 W/m
19.11.2016 16:40 7,2 C 73 % 1005,8 hPa 0,0 l/m 18,3 km/h (3 Bft) S-SW45 195 0 min 261 lux 0 W/m
19.11.2016 16:45 7,2 C 73 % 1005,8 hPa 0,0 l/m 16,8 km/h (3 Bft) S-SW22.5 200 0 min 261 lux 0 W/m
19.11.2016 16:50 7,2 C 73 % 1005,8 hPa 0,0 l/m 18,5 km/h (3 Bft) S-SW22.5 195 0 min 261 lux 0 W/m
19.11.2016 16:55 7,2 C 73 % 1005,8 hPa 0,0 l/m 14,9 km/h (3 Bft) S-SW22.5 195 0 min 261 lux 0 W/m
19.11.2016 17:00 7,2 C 73 % 1005,8 hPa 0,0 l/m 13,7 km/h (3 Bft) S22.5 190 0 min 15 lux 0 W/m
19.11.2016 17:05 7,2 C 74 % 1005,8 hPa 0,0 l/m 15,6 km/h (3 Bft) S22.5 180 0 min 4 lux 0 W/m
19.11.2016 17:10 7,1 C 74 % 1005,8 hPa 0,0 l/m 17,8 km/h (3 Bft) S22.5 185 0 min 2 lux 0 W/m
19.11.2016 17:15 7,2 C 74 % 1005,8 hPa 0,0 l/m 18,1 km/h (3 Bft) S22.5 180 0 min 0 lux 0 W/m
19.11.2016 17:20 7,1 C 74 % 1005,8 hPa 0,0 l/m 16,5 km/h (3 Bft) S-SW22.5 195 0 min 0 lux 0 W/m
19.11.2016 17:25 7,1 C 74 % 1005,8 hPa 0,0 l/m 19,3 km/h (3 Bft) S-SW22.5 195 0 min 0 lux 0 W/m
19.11.2016 17:30 7,1 C 74 % 1005,8 hPa 0,0 l/m 20,2 km/h (4 Bft) S-SW22.5 205 0 min 0 lux 0 W/m
19.11.2016 17:35 7,0 C 74 % 1005,8 hPa 0,0 l/m 25,0 km/h (4 Bft) S-SW45 200 0 min 0 lux 0 W/m
19.11.2016 17:40 6,8 C 74 % 1005,8 hPa 0,0 l/m 20,0 km/h (4 Bft) S-SW22.5 195 0 min 0 lux 0 W/m
19.11.2016 17:45 6,8 C 75 % 1005,8 hPa 0,0 l/m 20,6 km/h (4 Bft) S-SW22.5 210 0 min 0 lux 0 W/m
19.11.2016 17:50 6,7 C 75 % 1005,8 hPa 0,0 l/m 18,8 km/h (3 Bft) S-SW22.5 210 0 min 0 lux 0 W/m
19.11.2016 17:55 6,7 C 75 % 1005,8 hPa 0,0 l/m 20,2 km/h (4 Bft) S-SW22.5 200 0 min 0 lux 0 W/m
19.11.2016 18:00 6,6 C 75 % 1005,8 hPa 0,0 l/m 20,9 km/h (4 Bft) S-SW22.5 195 0 min 0 lux 0 W/m
19.11.2016 18:05 6,6 C 75 % 1005,8 hPa 0,0 l/m 16,7 km/h (3 Bft) S22.5 190 0 min 0 lux 0 W/m
19.11.2016 18:10 6,6 C 75 % 1005,8 hPa 0,0 l/m 15,3 km/h (3 Bft) S22.5 180 0 min 0 lux 0 W/m
19.11.2016 18:15 6,6 C 75 % 1005,8 hPa 0,0 l/m 14,3 km/h (3 Bft) S22.5 180 0 min 0 lux 0 W/m
19.11.2016 18:20 6,6 C 76 % 1005,8 hPa 0,0 l/m 17,8 km/h (3 Bft) S22.5 180 0 min 0 lux 0 W/m
19.11.2016 18:25 6,6 C 76 % 1005,8 hPa 0,0 l/m 17,1 km/h (3 Bft) S22.5 185 0 min 0 lux 0 W/m
19.11.2016 18:30 6,6 C 76 % 1005,8 hPa 0,0 l/m 18,0 km/h (3 Bft) S22.5 180 0 min 0 lux 0 W/m
19.11.2016 18:35 6,6 C 75 % 1005,8 hPa 0,0 l/m 18,1 km/h (3 Bft) S22.5 185 0 min 0 lux 0 W/m
19.11.2016 18:40 6,7 C 75 % 1005,8 hPa 0,0 l/m 18,9 km/h (3 Bft) S22.5 185 0 min 0 lux 0 W/m
19.11.2016 18:45 6,7 C 75 % 1005,8 hPa 0,0 l/m 17,8 km/h (3 Bft) S-SW22.5 195 0 min 0 lux 0 W/m
19.11.2016 18:50 6,8 C 74 % 1005,8 hPa 0,0 l/m 18,3 km/h (3 Bft) S45 190 0 min 0 lux 0 W/m
19.11.2016 18:55 6,8 C 74 % 1005,8 hPa 0,0 l/m 19,3 km/h (3 Bft) S22.5 190 0 min 0 lux 0 W/m
19.11.2016 19:00 6,8 C 74 % 1005,8 hPa 0,0 l/m 16,6 km/h (3 Bft) S22.5 185 0 min 0 lux 0 W/m
19.11.2016 19:06 6,8 C 74 % 1005,8 hPa 0,0 l/m 22,1 km/h (4 Bft) S22.5 185 0 min 0 lux 0 W/m
19.11.2016 19:10 6,8 C 73 % 1005,8 hPa 0,0 l/m 20,7 km/h (4 Bft) S45 180 0 min 0 lux 0 W/m
19.11.2016 19:15 6,8 C 73 % 1005,8 hPa 0,0 l/m 21,8 km/h (4 Bft) S22.5 190 0 min 0 lux 0 W/m
19.11.2016 19:20 6,8 C 73 % 1005,8 hPa 0,0 l/m 18,5 km/h (3 Bft) S22.5 185 0 min 0 lux 0 W/m
19.11.2016 19:25 6,8 C 73 % 1005,8 hPa 0,0 l/m 24,3 km/h (4 Bft) S22.5 190 0 min 0 lux 0 W/m
19.11.2016 19:31 6,8 C 73 % 1005,8 hPa 0,0 l/m 19,8 km/h (3 Bft) S45 185 0 min 0 lux 0 W/m
19.11.2016 19:35 6,8 C 73 % 1005,8 hPa 0,0 l/m 28,9 km/h (5 Bft) S-SW22.5 195 0 min 0 lux 0 W/m
19.11.2016 19:40 6,8 C 73 % 1005,8 hPa 0,0 l/m 25,3 km/h (4 Bft) S22.5 185 0 min 0 lux 0 W/m
19.11.2016 19:45 6,8 C 73 % 1005,8 hPa 0,0 l/m 16,2 km/h (3 Bft) S22.5 180 0 min 0 lux 0 W/m
19.11.2016 19:50 6,8 C 73 % 1005,8 hPa 0,0 l/m 18,6 km/h (3 Bft) S22.5 175 0 min 0 lux 0 W/m
19.11.2016 19:56 6,8 C 73 % 1005,8 hPa 0,0 l/m 17,6 km/h (3 Bft) S45 180 0 min 0 lux 0 W/m
19.11.2016 20:00 6,8 C 73 % 1005,8 hPa 0,0 l/m 17,8 km/h (3 Bft) S22.5 175 0 min 0 lux 0 W/m
19.11.2016 20:05 6,7 C 73 % 1005,8 hPa 0,0 l/m 21,8 km/h (4 Bft) S22.5 170 0 min 0 lux 0 W/m
19.11.2016 20:11 6,8 C 73 % 1005,8 hPa 0,0 l/m 15,6 km/h (3 Bft) S22.5 175 0 min 0 lux 0 W/m
19.11.2016 20:15 6,7 C 73 % 1005,8 hPa 0,0 l/m 18,1 km/h (3 Bft) S22.5 170 0 min 0 lux 0 W/m
19.11.2016 20:20 6,8 C 73 % 1005,8 hPa 0,0 l/m 14,5 km/h (3 Bft) S22.5 175 0 min 0 lux 0 W/m
19.11.2016 20:25 6,7 C 73 % 1005,8 hPa 0,0 l/m 13,7 km/h (3 Bft) S22.5 170 0 min 0 lux 0 W/m
19.11.2016 20:30 6,7 C 73 % 1005,8 hPa 0,0 l/m 17,4 km/h (3 Bft) S45 170 0 min 0 lux 0 W/m
19.11.2016 20:35 6,6 C 73 % 1005,8 hPa 0,0 l/m 19,0 km/h (3 Bft) S22.5 180 0 min 0 lux 0 W/m
19.11.2016 20:40 6,5 C 73 % 1005,8 hPa 0,0 l/m 17,0 km/h (3 Bft) S45 175 0 min 0 lux 0 W/m
19.11.2016 20:45 6,4 C 73 % 1005,8 hPa 0,0 l/m 19,1 km/h (3 Bft) S22.5 175 0 min 0 lux 0 W/m
19.11.2016 20:50 6,4 C 73 % 1005,8 hPa 0,0 l/m 12,2 km/h (2 Bft) S22.5 175 0 min 0 lux 0 W/m
19.11.2016 20:55 6,3 C 74 % 1005,8 hPa 0,0 l/m 16,6 km/h (3 Bft) S45 175 0 min 0 lux 0 W/m
19.11.2016 21:00 6,2 C 74 % 1005,8 hPa 0,0 l/m 18,3 km/h (3 Bft) S-SO22.5 165 0 min 0 lux 0 W/m
19.11.2016 21:05 6,2 C 74 % 1005,8 hPa 0,0 l/m 17,5 km/h (3 Bft) S-SO22.5 165 0 min 0 lux 0 W/m
19.11.2016 21:10 6,1 C 75 % 1005,8 hPa 0,0 l/m 20,4 km/h (4 Bft) S-SO22.5 165 0 min 0 lux 0 W/m
19.11.2016 21:15 6,0 C 75 % 1005,8 hPa 0,0 l/m 22,1 km/h (4 Bft) S-SO22.5 160 0 min 0 lux 0 W/m
19.11.2016 21:20 6,0 C 75 % 1005,8 hPa 0,0 l/m 18,6 km/h (3 Bft) S-SO22.5 165 0 min 0 lux 0 W/m
19.11.2016 21:25 5,9 C 76 % 1005,8 hPa 0,0 l/m 18,7 km/h (3 Bft) S-SO22.5 160 0 min 0 lux 0 W/m
19.11.2016 21:30 5,9 C 76 % 1005,8 hPa 0,0 l/m 20,2 km/h (4 Bft) S-SO22.5 165 0 min 0 lux 0 W/m
19.11.2016 21:35 5,9 C 76 % 1004,8 hPa 0,0 l/m 21,6 km/h (4 Bft) S-SO22.5 165 0 min 0 lux 0 W/m
19.11.2016 21:40 5,9 C 76 % 1004,8 hPa 0,0 l/m 20,8 km/h (4 Bft) S-SO22.5 165 0 min 0 lux 0 W/m
19.11.2016 21:45 5,8 C 76 % 1004,8 hPa 0,0 l/m 22,5 km/h (4 Bft) S-SO45 160 0 min 0 lux 0 W/m
19.11.2016 21:50 5,8 C 76 % 1004,8 hPa 0,0 l/m 19,5 km/h (3 Bft) S-SO22.5 165 0 min 0 lux 0 W/m
19.11.2016 21:55 5,8 C 76 % 1004,8 hPa 0,0 l/m 22,7 km/h (4 Bft) S-SO22.5 160 0 min 0 lux 0 W/m
19.11.2016 22:00 5,8 C 76 % 1004,8 hPa 0,0 l/m 20,6 km/h (4 Bft) S-SO45 160 0 min 0 lux 0 W/m
19.11.2016 22:05 5,8 C 76 % 1004,8 hPa 0,0 l/m 19,0 km/h (3 Bft) S-SO22.5 160 0 min 0 lux 0 W/m
19.11.2016 22:10 5,8 C 76 % 1004,8 hPa 0,0 l/m 19,0 km/h (3 Bft) S-SO22.5 150 0 min 0 lux 0 W/m
19.11.2016 22:15 5,8 C 76 % 1004,8 hPa 0,0 l/m 20,9 km/h (4 Bft) S-SO22.5 160 0 min 0 lux 0 W/m
19.11.2016 22:20 5,9 C 76 % 1004,8 hPa 0,0 l/m 18,4 km/h (3 Bft) S-SO45 155 0 min 0 lux 0 W/m
19.11.2016 22:25 5,8 C 76 % 1004,8 hPa 0,0 l/m 14,8 km/h (3 Bft) S-SO22.5 150 0 min 0 lux 0 W/m
19.11.2016 22:30 5,8 C 76 % 1004,8 hPa 0,0 l/m 13,9 km/h (3 Bft) S-SO22.5 150 0 min 0 lux 0 W/m
19.11.2016 22:35 5,7 C 76 % 1004,8 hPa 0,0 l/m 18,3 km/h (3 Bft) S-SO22.5 155 0 min 0 lux 0 W/m
19.11.2016 22:40 5,7 C 76 % 1004,8 hPa 0,0 l/m 20,2 km/h (4 Bft) S-SO22.5 150 0 min 0 lux 0 W/m
19.11.2016 22:45 5,8 C 77 % 1003,8 hPa 0,0 l/m 20,7 km/h (4 Bft) S-SO45 155 0 min 0 lux 0 W/m
19.11.2016 22:50 5,8 C 76 % 1003,8 hPa 0,0 l/m 20,8 km/h (4 Bft) S-SO22.5 155 0 min 0 lux 0 W/m
19.11.2016 22:55 5,8 C 76 % 1003,8 hPa 0,0 l/m 17,6 km/h (3 Bft) S-SO22.5 150 0 min 0 lux 0 W/m
19.11.2016 23:00 5,8 C 77 % 1003,8 hPa 0,0 l/m 13,3 km/h (3 Bft) S-SO22.5 150 0 min 0 lux 0 W/m
19.11.2016 23:05 5,7 C 77 % 1003,8 hPa 0,0 l/m 14,5 km/h (3 Bft) S-SO22.5 155 0 min 0 lux 0 W/m
19.11.2016 23:10 5,6 C 77 % 1003,8 hPa 0,0 l/m 17,1 km/h (3 Bft) S-SO22.5 155 0 min 0 lux 0 W/m
19.11.2016 23:15 5,6 C 77 % 1003,8 hPa 0,0 l/m 18,5 km/h (3 Bft) SO22.5 140 0 min 0 lux 0 W/m
19.11.2016 23:20 5,6 C 77 % 1003,8 hPa 0,0 l/m 19,1 km/h (3 Bft) S-SO45 150 0 min 0 lux 0 W/m
19.11.2016 23:25 5,6 C 77 % 1003,8 hPa 0,0 l/m 19,1 km/h (3 Bft) S-SO22.5 150 0 min 0 lux 0 W/m
19.11.2016 23:30 5,7 C 77 % 1003,8 hPa 0,0 l/m 20,8 km/h (4 Bft) S-SO22.5 160 0 min 0 lux 0 W/m
19.11.2016 23:35 5,8 C 77 % 1003,8 hPa 0,0 l/m 21,3 km/h (4 Bft) S-SO22.5 165 0 min 0 lux 0 W/m
19.11.2016 23:40 5,9 C 77 % 1003,8 hPa 0,0 l/m 22,5 km/h (4 Bft) S-SO22.5 160 0 min 0 lux 0 W/m
19.11.2016 23:45 5,9 C 77 % 1003,8 hPa 0,0 l/m 22,6 km/h (4 Bft) S-SO22.5 165 0 min 0 lux 0 W/m
19.11.2016 23:50 6,0 C 76 % 1003,8 hPa 0,0 l/m 24,6 km/h (4 Bft) S-SO22.5 160 0 min 0 lux 0 W/m
19.11.2016 23:55 6,0 C 76 % 1003,8 hPa 0,0 l/m 26,1 km/h (4 Bft) S-SO22.5 160 0 min 0 lux 0 W/m
_ Min-Zeit 05:05 14:35 05:00 - 20:50 - - - - -
Minimum _ 4,7 C 68 % 1001,8 hPa - 12,2 km/h (2 Bft) - - - - -
_ Max-Zeit 14:30 05:05 21:25 00:00 14:35 - - 13:45 13:45 13:45
Maximum _ 8,6 C 81 % 1005,8 hPa 0,0 l/m 36,2 km/h
SW (5 Bft)
- - 5 min 33,5 klux 229 W/m
Durchschnitt _ 6,2 C 77 % 1004,2 hPa #0,0 l/m 19,7 km/h (3 Bft) S-SO - #30 min. 2,14 klux 52 W/m